* Astronomy

Members Login
Username 
 
Password 
    Remember Me  
Post Info TOPIC: Asteroid 2012 VH6


L

Posts: 131433
Date:
Asteroid 2012 VH6
Permalink  
 


Orbital elements:
2012 VH6                                                 Earth MOID = 0.1943 AU
Epoch 2012 Sept. 30.0 TT = JDT 2456200.5                MPC
M   7.86990              (2000.0)            P               Q
n   0.29051228     Peri.  236.20490     +0.96504910     +0.22821807
a   2.2578394      Node   110.31172     -0.17102239     +0.92090830
e   0.4837534      Incl.    7.89571     -0.19857385     +0.31598168
P   3.39           H   21.3           G   0.15           U   8

MPEC 2012 - V28



__________________
Page 1 of 1  sorted by
 
Quick Reply

Please log in to post quick replies.



Create your own FREE Forum
Report Abuse
Powered by ActiveBoard